[[{"header":{"parameterUnit":"m.s-1","parameterCategory":1,"la1":30.2992,"la2":30.254,"lo1":-89.0895,"lo2":-89.0443,"dy":0.0025,"dx":0.0025,"nx":19,"ny":19,"refTime":"2026-05-02T21:00:00:Z","depth":0,"parameterNumber":2,"parameterNumberName":"U-component_of_WINDS"},"data":[0,0,0,-0.9805,-0.9805,-0.9834,-0.9834,-0.9875,-0.9875,0,0,0,0,0,0,0,0,0,0,0,-0.9797,-0.9797,-0.9805,-0.9805,-0.9834,-0.9834,-0.9875,-0.9875,0,0,0,0,0,0,0,0,0,0,0,-0.9797,-0.9797,-0.9797,-0.9806,-0.9834,-0.9834,-0.9875,-0.9852,0,0,0,0,0,0,0,0,0,0,-0.9823,-0.9816,-0.9797,-0.9797,-0.9806,-0.9834,-0.9834,-0.9851,-0.9853,-0.9863,0,-0.987,0,-0.9873,-0.9878,-0.9878,0,0,0,-0.9805,-0.9814,-0.9821,-0.9797,-0.9806,-0.9834,-0.9821,-0.9852,-0.9855,-0.9866,-0.987,-0.9872,-0.9874,-0.9878,-0.9878,-0.9931,-0.9931,0,0,-0.9804,-0.9802,-0.9819,-0.9823,-0.9817,-0.982,-0.9822,-0.9854,-0.9859,-0.987,-0.9873,-0.9874,-0.9878,-0.9879,-0.993,-0.9931,0,0,0,-0.9799,-0.9801,-0.9808,-0.9821,-0.9826,-0.9821,-0.9823,-0.9857,-0.986,-0.9873,-0.9875,-0.9879,-0.9879,-0.993,-0.993,-0.9941,0,0,0,-0.9798,-0.9799,-0.9807,-0.9806,-0.9826,-0.9842,-0.9826,-0.9857,-0.9861,-0.9875,-0.9879,-0.988,-0.993,-0.993,-0.994,-0.9945,0,0,0,-0.9795,-0.9798,-0.9802,-0.9806,-0.9819,-0.9841,-0.9845,-0.9858,-0.9862,-0.9878,-0.988,-0.993,-0.993,-0.9939,-0.9944,-0.9959,0,0,0,-0.9791,-0.9811,-0.9803,-0.9826,-0.9818,-0.9848,-0.9845,-0.9867,-0.9882,-0.9879,-0.993,-0.993,-0.9939,-0.9943,-0.9958,-0.997,-0.9975,0,0,-0.9815,-0.9814,-0.9828,-0.9822,-0.9852,-0.9843,-0.9876,-0.9891,-0.9895,-0.9919,-0.992,-0.994,-0.9944,-0.9958,-1.0006,-1.0009,0,0,0,-0.9836,-0.9846,-0.9854,-0.9868,-0.988,-0.9892,-0.9902,-0.9909,-0.9929,-0.9906,-0.995,-0.9952,-0.9961,-0.9967,-0.997,-0.9978,-0.9933,-0.9933,-0.9933,-0.9867,-0.9871,-0.9895,-0.9903,-0.9917,-0.9929,-0.9941,-0.9951,-0.9951,-0.9961,-0.9968,-0.9996,-1.0003,-1.0005,-1.0013,-0.9976,-0.9976,-0.9976,-0.9976,-0.9903,-0.9918,-0.9919,-0.9942,-0.9947,-0.9967,-0.9981,-0.998,-1.0001,-0.9991,-0.9998,-0.9986,-1.0009,-1.0017,-0.9977,-0.9976,-0.9976,-0.9976,-0.9976,-0.9923,-0.9931,-0.9939,-0.9961,-0.9978,-0.9986,-1.0006,-1.001,-1.0014,-1.0022,-1.003,-1.003,-1.0029,-1.0026,-1.0026,-1.0026,-1.0026,-1.0026,-1.0026,-0.994,-0.9949,-0.9964,-0.9981,-0.9992,-1.0006,-1.0021,-1.0032,-1.0045,-1.0047,-1.0047,-1.0046,-1.0011,-1.0002,-1.0028,-1.0027,-1.0027,-1.0027,-1.0027,-0.9973,-0.9967,-0.9991,-1.0001,-1.0023,-1.004,-1.0046,-1.0069,-1.0079,-1.0089,-1.0088,-1.0062,-1.006,-1.0058,-1.005,-1.0087,-1.0087,-1.0087,-1.0087,-0.9989,-0.9989,-1.0016,-1.0033,-1.0051,-1.0059,-1.0088,-1.0101,-1.0114,-1.0121,-1.0117,-1.0108,-1.0105,-1.0105,-1.0101,-1.0094,-1.0141,-1.0141,-1.0141,-1.0009,-1.0012,-1.0035,-1.0046,-1.0064,-1.008,-1.0108,-1.0129,-1.0143,-1.0144,-1.0127,-1.0124,-1.0109,-1.0104,-1.0102,-1.0097,-1.0083,0,0]},{"header":{"parameterUnit":"m.s-1","parameterCategory":1,"la1":30.2992,"la2":30.254,"lo1":-89.0895,"lo2":-89.0443,"dy":0.0025,"dx":0.0025,"nx":19,"ny":19,"refTime":"2026-05-02T21:00:00:Z","depth":0,"parameterNumber":3,"parameterNumberName":"V-component_of_WINDS"},"data":[0,0,0,3.3245,3.3244,3.3205,3.3205,3.3151,3.315,0,0,0,0,0,0,0,0,0,0,0,3.3255,3.3254,3.3245,3.3244,3.3205,3.3205,3.3151,3.315,0,0,0,0,0,0,0,0,0,0,0,3.3255,3.3254,3.3254,3.3244,3.3205,3.3205,3.3151,3.3181,0,0,0,0,0,0,0,0,0,0,3.322,3.3228,3.3255,3.3254,3.3244,3.3205,3.3205,3.3183,3.318,3.3167,0,3.3156,0,3.3152,3.3146,3.3146,0,0,0,3.3245,3.3231,3.3222,3.3254,3.3243,3.3205,3.3223,3.3181,3.3177,3.3162,3.3155,3.3153,3.3151,3.3146,3.3146,3.3073,3.3073,0,0,3.3247,3.3246,3.3225,3.3219,3.3227,3.3224,3.3222,3.3179,3.3171,3.3155,3.3152,3.3151,3.3146,3.3145,3.3073,3.3073,0,0,0,3.3252,3.3248,3.324,3.3221,3.3215,3.3223,3.322,3.3173,3.317,3.3152,3.315,3.3145,3.3145,3.3074,3.3073,3.3055,0,0,0,3.3254,3.3251,3.3241,3.3241,3.3216,3.3194,3.3215,3.3173,3.3168,3.315,3.3145,3.3144,3.3074,3.3073,3.3056,3.3046,0,0,0,3.3258,3.3252,3.3246,3.3241,3.3224,3.3194,3.3189,3.3172,3.3167,3.3146,3.3144,3.3074,3.3073,3.3058,3.3048,3.3026,0,0,0,3.3261,3.3229,3.3246,3.3209,3.3225,3.3184,3.319,3.3159,3.3139,3.3145,3.3074,3.3073,3.3058,3.3049,3.3028,3.3008,3.3,0,0,3.322,3.3224,3.3203,3.3216,3.3173,3.319,3.3144,3.3124,3.3122,3.3089,3.3087,3.3056,3.3048,3.3027,3.2957,3.2951,0,0,0,3.319,3.3174,3.3163,3.3144,3.313,3.3117,3.3105,3.3098,3.3071,3.3105,3.3043,3.3038,3.3026,3.3016,3.3011,3.3,3.3069,3.3069,3.3069,3.313,3.313,3.3094,3.309,3.3072,3.3061,3.3046,3.3035,3.3039,3.3024,3.3014,3.2972,3.2961,3.2957,3.2945,3.3004,3.3004,3.3004,3.3004,3.3069,3.3047,3.3055,3.3023,3.3024,3.2996,3.2985,3.2989,3.2963,3.2979,3.2968,3.2985,3.295,3.294,3.3003,3.3003,3.3003,3.3003,3.3003,3.3029,3.3018,3.3012,3.2986,3.2966,3.2963,3.2938,3.2939,3.2939,3.2928,3.2917,3.2918,3.2917,3.2923,3.2923,3.2923,3.2923,3.2923,3.2923,3.299,3.2983,3.2963,3.2947,3.2935,3.2921,3.291,3.2899,3.2886,3.2888,3.2888,3.2893,3.2947,3.296,3.292,3.2921,3.2921,3.2921,3.2921,3.2926,3.2941,3.291,3.2899,3.288,3.286,3.2862,3.2839,3.2829,3.2817,3.2825,3.2865,3.2868,3.2873,3.2883,3.2826,3.2826,3.2826,3.2826,3.2892,3.2895,3.2863,3.2846,3.2828,3.2828,3.2791,3.2783,3.2777,3.2771,3.278,3.2794,3.2799,3.2799,3.2805,3.2815,3.2741,3.2741,3.2741,3.2853,3.2854,3.2823,3.2819,3.2805,3.2792,3.2758,3.2736,3.2732,3.2738,3.2766,3.277,3.2794,3.2801,3.2806,3.2815,3.2833,0,0]}]]